Location: Dvur Kralove nad Labem
(50.4330°N, 15.8170°E)
Time: 15:03:20
(UTC+02:00)

ISS - Pass Details

Date: 22 May 2018
Orbit: 402 x 407 km, 51.6° (Epoch: 24 May)

Event Time Altitude Azimuth Distance (km) Brightness Sun altitude
Rises 22:59:48 0° 249° (WSW) 2,314 0.1 -14.8°
Reaches altitude 10° 23:01:52 10° 248° (WSW) 1,456 -1.0 -14.9°
Maximum altitude 23:05:08 77° 161° (SSE) 418 -4.0 -15.1°
Drops below altitude 10° 23:08:24 10° 76° (ENE) 1,459 -1.1 -15.4°
Sets 23:10:29 0° 75° (ENE) 2,319 -0.1 -15.5°
